Location: Observatory
(52.1446°N, 0.4624°W)
Time: 02:06:31
(UTC+01:00)

ISS - Pass Details

Date: 23 May 2018
Orbit: 402 x 406 km, 51.6° (Epoch: 21 June)

Event Time Altitude Azimuth Distance (km) Brightness Sun altitude
Rises 01:06:19 0° 274° (W) 2,321 0.1 -17.3°
Reaches altitude 10° 01:08:24 10° 273° (W) 1,460 -1.0 -17.3°
Maximum altitude 01:11:40 79° 189° (S) 416 -4.0 -17.3°
Drops below altitude 10° 01:14:56 10° 101° (E) 1,458 -1.1 -17.2°
Sets 01:17:00 0° 100° (E) 2,316 0.0 -17.2°
